AKDT,Max TemperatureF,Mean TemperatureF,Min TemperatureF,Max Dew PointF,MeanDew PointF,Min DewpointF,Max Humidity, Mean Humidity, Min Humidity, Max Sea Level PressureIn, Mean Sea Level PressureIn, Min Sea Level PressureIn, Max VisibilityMiles, Mean VisibilityMiles, Min VisibilityMiles, Max Wind SpeedMPH, Mean Wind SpeedMPH, Max Gust SpeedMPH,PrecipitationIn, CloudCover, Events, WindDirDegrees
2013-6-1,51,48,46,49,47,43,100,94,76,30.31,30.27,30.23,10,8,2,9,3,,0.68,8,Rain,151
2013-6-2,55,50,46,47,46,45,100,88,69,30.31,30.29,30.21,10,10,8,7,1,,0.05,7,Rain,229
2013-6-3,53,49,46,48,46,44,97,88,80,30.18,30.09,29.98,10,10,8,12,5,,0.04,7,Rain,175
2013-6-4,54,50,48,50,47,44,100,92,74,30.04,30.00,29.95,10,6,1,14,9,,0.27,8,Rain,188
2013-6-5,53,50,46,46,45,44,97,88,71,30.17,30.09,30.03,10,9,4,15,8,20,0.27,8,Rain,140
2013-6-6,54,50,46,49,43,41,96,78,64,30.09,29.81,29.65,10,10,10,16,7,25,0.08,8,Rain,108
2013-6-7,59,52,46,49,47,44,100,86,60,29.89,29.80,29.70,10,8,2,16,8,21,0.08,7,Rain,155
2013-6-8,55,52,50,50,49,48,100,91,83,30.12,29.98,29.90,10,9,6,8,4,,0.02,7,Rain,265
2013-6-9,60,53,46,51,48,45,100,90,69,30.19,30.17,30.13,10,7,1,21,5,,0.00,4,,247
2013-6-10,61,54,48,53,49,46,97,87,72,30.19,30.13,30.02,10,10,10,10,4,,0.00,2,Fog,304
2013-6-11,63,56,50,54,51,48,100,92,72,30.01,29.98,29.96,10,8,2,10,6,,0.00,5,Fog,297
2013-6-12,57,54,50,52,50,48,100,93,81,30.14,30.06,30.00,10,7,2,13,6,17,0.00,5,,278
2013-6-13,51,50,48,49,47,45,100,92,82,30.19,30.16,30.14,10,7,3,9,5,,0.03,8,Rain,246
2013-6-14,60,54,48,51,48,46,100,84,72,30.19,30.17,30.17,10,10,10,9,2,,0.00,5,,229
2013-6-15,64,56,48,56,52,48,97,83,63,30.18,30.12,30.08,10,10,10,7,2,,0.00,0,,233
2013-6-16,71,62,54,59,55,52,96,79,53,30.09,30.04,30.00,10,10,10,5,1,,0.00,1,,241
2013-6-17,66,58,53,59,56,54,100,89,68,29.99,29.92,29.87,10,9,2,13,3,17,0.04,5,Rain,268
2013-6-18,62,56,53,55,54,52,100,95,80,30.00,29.94,29.91,10,9,4,13,8,,0.07,7,Rain,235
2013-6-19,63,57,53,56,54,53,100,95,83,30.02,30.00,29.99,10,7,1,8,4,,0.00,7,,258
2013-6-20,62,58,55,57,56,54,100,89,77,30.04,30.01,30.00,10,10,10,9,5,,0.00,5,,276
2013-6-21,66,60,55,58,56,55,100,89,73,30.06,30.04,30.01,10,10,5,12,7,,0.00,4,,295
2013-6-22,57,55,53,56,54,53,100,97,90,30.04,30.01,29.93,10,8,2,14,8,17,0.11,8,Rain,247
2013-6-23,64,58,52,55,53,51,100,89,72,29.91,29.76,29.61,10,10,9,7,3,,0.00,4,,260
2013-6-24,73,63,53,60,56,52,100,81,57,29.60,29.49,29.42,10,10,10,10,2,25,0.00,1,,204
2013-6-25,62,58,55,58,56,55,100,94,81,29.64,29.60,29.54,10,9,3,7,3,,0.30,7,Rain,257
2013-6-26,64,59,55,57,55,51,100,88,70,29.97,29.78,29.65,10,9,4,13,5,21,0.16,7,Rain,250
2013-6-27,64,60,55,57,54,51,97,84,70,30.14,30.07,29.98,10,10,9,12,3,,0.03,7,Rain,276
2013-6-28,64,58,55,57,55,52,93,88,83,30.20,30.14,30.04,10,10,8,10,3,,0.02,5,Rain,243
2013-6-29,68,60,55,59,56,53,100,90,67,30.04,30.02,30.00,10,10,6,7,1,,0.19,8,Rain,258
2013-6-30,66,62,57,59,58,55,100,90,78,30.06,30.04,29.99,10,10,10,9,4,,0.00,7,,233